Location: Unspecified
(53.9000°N, 0.0000°E)
Time: 13:34:29
(UTC+00:00)

OPS 7869 - Visible Passes

Search period start: 04 April 2026 00:00
Search period end: 14 April 2026 00:00
Orbit: 801 x 877 km, 98.6° (Epoch: 29 March)

Date Brightness Start Highest point End Pass type
(mag) Time Alt. Az. Time Alt. Az. Time Alt. Az.
4 Apr ? 03:14:52 10° ENE 03:17:22 13° NE 03:19:51 10° NNE visible
4 Apr ? 20:26:08 10° N 20:30:29 26° NW 20:34:48 10° WSW visible
5 Apr ? 03:01:08 10° NE 03:02:29 11° NE 03:03:49 10° NNE visible
5 Apr ? 04:36:34 10° SE 04:41:42 41° ENE 04:46:45 10° N visible
5 Apr ? 20:10:47 10° N 20:15:28 32° WNW 20:20:06 10° WSW visible
6 Apr ? 04:21:47 10° ESE 04:26:39 33° ENE 04:31:26 10° N visible
6 Apr ? 19:55:29 10° N 20:00:25 40° WNW 20:05:18 10° SW visible
6 Apr ? 21:38:41 10° NNW 21:39:36 10° NW 21:40:32 10° NW visible
7 Apr ? 04:07:07 10° ESE 04:11:37 27° ENE 04:16:05 10° N visible
7 Apr ? 19:40:13 10° N 19:45:20 51° WNW 19:50:24 10° SW visible
7 Apr ? 21:22:28 10° NNW 21:24:43 13° NW 21:26:57 10° WNW visible
8 Apr ? 03:52:32 10° ESE 03:56:38 22° NE 04:00:41 10° N visible
8 Apr ? 19:24:58 10° NNE 19:30:14 64° WNW 19:35:24 10° SSW visible
8 Apr ? 21:06:47 10° NNW 21:09:48 16° NW 21:12:48 10° W visible
9 Apr ? 03:38:05 10° E 03:41:40 18° NE 03:45:13 10° N visible
9 Apr ? 20:51:15 10° N 20:54:52 19° NW 20:58:25 10° W visible
10 Apr ? 03:23:48 10° E 03:26:44 15° NE 03:29:39 10° NNE visible
10 Apr ? 20:35:49 10° N 20:39:53 23° NW 20:43:55 10° WSW visible
11 Apr ? 03:09:46 10° ENE 03:11:49 12° NE 03:13:53 10° NNE visible
11 Apr ? 20:20:26 10° N 20:24:53 28° WNW 20:29:17 10° WSW visible
12 Apr ? 20:05:06 10° N 20:09:50 35° WNW 20:14:33 10° SW visible
13 Apr ? 04:16:23 10° ESE 04:21:03 30° ENE 04:25:40 10° N visible
13 Apr ? 19:49:48 10° N 19:54:46 43° WNW 19:59:43 10° SW visible
13 Apr ? 21:32:36 10° NNW 21:34:02 11° NW 21:35:28 10° WNW visible
